Imperial, NE

3:52 AM MDT on August 17, 2017 (GMT -0600)
Imperial Municipal

Weather History for KIML - November, 2011

Change the Weather History Date:

Sunday, November 27, 2011

  Actual Average Record
Temperature  
Mean Temperature 37 °F 33 °F  
Max Temperature 55 °F 46 °F 73 °F (2009)
Min Temperature 19 °F 20 °F -18 °F (1896)
Degree Days  
Heating Degree Days 28 32  
Month to date heating degree days 700 719  
Cooling Degree Days 0 0  
Month to date cooling degree days 0 0  
Year to date cooling degree days 1096 963  
Moisture  
Dew Point 17 °F    
Average Humidity 49    
Maximum Humidity 73    
Minimum Humidity 24    
Precipitation  
Precipitation 0.00 in 0.02 in 0.81 in (1983)
Sea Level Pressure  
Sea Level Pressure 30.34 in    
Wind  
Wind Speed 9 mph (WNW)    
Max Wind Speed 17 mph    
Max Gust Speed 22 mph    
Visibility 10 miles    
Events      
T = Trace of Precipitation, MM = Missing Value Source: NWS Daily Summary

Daily Weather History Graph

Daily Weather History Graph

Search for Another Location

Airport or City:

Trip Planner

Search our weather history database for the weather conditions in past years. The results will help you decide how hot, cold, wet, or windy it might be!

Date:

Astronomy

Nov. 27, 2011 Rise Set
Actual Time 6:46 AM MST 4:21 PM MST
Civil Twilight 6:16 AM MST 4:51 PM MST
Nautical Twilight 5:42 AM MST 5:25 PM MST
Astronomical Twilight 5:09 AM MST 5:58 PM MST
Moon 9:12 AM MST (11/27) 7:02 PM MST (11/27)
Length of Visible Light 10h 35m
Length of Day
9h 35m
Waxing Crescent, 9% of the Moon is Illuminated
Nov 27
Waxing Crescent
Dec 2
First Quarter
Dec 10
Full
Dec 17
Last Quarter
Dec 24
New

Hourly Weather History & Observations

Time (MST) Temp. Windchill Dew Point Humidity Pressure Visibility Wind Dir Wind Speed Gust Speed Precip Events Conditions
12:53 AM 21.9 °F 11.0 °F 12.9 °F 68% 30.51 in 10.0 mi WNW 10.4 mph - N/A   Clear
1:53 AM 21.9 °F 10.4 °F 12.0 °F 66% 30.50 in 10.0 mi WNW 11.5 mph - N/A   Clear
2:53 AM 21.9 °F 9.8 °F 12.0 °F 66% 30.48 in 10.0 mi WNW 12.7 mph - N/A   Clear
3:53 AM 21.9 °F 9.2 °F 10.9 °F 63% 30.47 in 10.0 mi WNW 13.8 mph - N/A   Clear
4:53 AM 19.9 °F 8.6 °F 10.9 °F 68% 30.46 in 10.0 mi WNW 10.4 mph - N/A   Clear
5:53 AM 19.9 °F 8.6 °F 12.0 °F 71% 30.47 in 10.0 mi WNW 10.4 mph - N/A   Clear
6:53 AM 24.1 °F 13.1 °F 14.0 °F 65% 30.45 in 10.0 mi WNW 11.5 mph - N/A   Clear
7:53 AM 28.9 °F 19.2 °F 15.1 °F 56% 30.44 in 10.0 mi WNW 11.5 mph - N/A   Clear
8:53 AM 36.0 °F 28.5 °F 17.1 °F 46% 30.43 in 10.0 mi NW 10.4 mph - N/A   Clear
9:53 AM 44.1 °F 37.4 °F 15.1 °F 31% 30.40 in 10.0 mi NW 13.8 mph - N/A   Clear
10:53 AM 50.0 °F - 16.0 °F 26% 30.37 in 10.0 mi NNW 17.3 mph - N/A   Clear
11:53 AM 52.0 °F - 18.0 °F 26% 30.34 in 10.0 mi NW 11.5 mph - N/A   Clear
12:53 PM 54.0 °F - 19.9 °F 26% 30.30 in 10.0 mi NNW 11.5 mph - N/A   Clear
1:53 PM 55.0 °F - 21.0 °F 27% 30.27 in 10.0 mi North 10.4 mph - N/A   Clear
2:53 PM 55.0 °F - 21.0 °F 27% 30.25 in 10.0 mi NNW 8.1 mph - N/A   Clear
3:53 PM 50.0 °F - 24.1 °F 36% 30.27 in 10.0 mi North 4.6 mph - N/A   Clear
4:53 PM 41.0 °F 39.0 °F 21.9 °F 47% 30.27 in 10.0 mi SE 3.5 mph - N/A   Clear
5:53 PM 36.0 °F - 21.0 °F 55% 30.28 in 10.0 mi Calm Calm - N/A   Clear
6:53 PM 37.0 °F 34.5 °F 19.9 °F 50% 30.25 in 10.0 mi South 3.5 mph - N/A   Clear
7:53 PM 32.0 °F 27.5 °F 19.9 °F 61% 30.25 in 10.0 mi WSW 4.6 mph - N/A   Clear
8:53 PM 30.0 °F 23.2 °F 19.9 °F 66% 30.23 in 10.0 mi WSW 6.9 mph - N/A   Clear
9:53 PM 28.9 °F 21.9 °F 19.9 °F 69% 30.20 in 10.0 mi WSW 6.9 mph - N/A   Clear
10:53 PM 30.0 °F 21.1 °F 19.9 °F 66% 30.17 in 10.0 mi WSW 10.4 mph - N/A   Clear
11:53 PM 30.9 °F 22.8 °F 19.0 °F 61% 30.14 in 10.0 mi West 9.2 mph - N/A   Clear